Location: Unspecified
(0.0000°N, 0.0000°E)
Time: 22:57:20
(UTC+00:00)

SRMSAT - Visible Passes

Search period start: 24 June 2024 00:00
Search period end: 04 July 2024 00:00
Orbit: 847 x 864 km, 20.0° (Epoch: 24 June)

Date Brightness Start Highest point End Pass type
(mag) Time Alt. Az. Time Alt. Az. Time Alt. Az.
24 Jun ? 03:36:18 12° SE 03:36:18 12° SE 03:36:48 10° SE visible
24 Jun ? 05:18:18 10° SW 05:21:23 14° S 05:24:27 10° SSE visible
24 Jun ? 19:59:18 10° N 20:00:10 10° N 20:01:03 10° NNE visible
25 Jun ? 05:05:59 11° SSW 05:08:00 13° S 05:10:42 10° SSE visible
25 Jun ? 19:45:23 10° N 19:46:50 11° N 19:48:16 10° NNE visible
26 Jun ? 04:53:37 12° SSW 04:54:37 12° S 04:56:57 10° SSE visible
26 Jun ? 19:31:34 10° NNW 19:33:28 11° N 19:35:23 10° NNE visible
26 Jun ? 21:18:56 10° NNW 21:19:44 13° NNW 21:19:44 13° NNW visible
27 Jun ? 04:41:12 11° S 04:41:16 11° S 04:43:09 10° S visible
27 Jun ? 19:17:46 10° NNW 19:20:06 12° N 19:22:26 10° NNE visible
27 Jun ? 21:05:14 10° NW 21:06:57 17° NNW 21:06:57 17° NNW visible
28 Jun ? 04:28:43 11° S 04:28:43 11° S 04:29:20 10° S visible
28 Jun ? 19:04:00 10° NNW 19:06:44 13° N 19:09:28 10° NE visible
28 Jun ? 20:51:34 10° NW 20:54:11 21° NNW 20:54:11 21° NNW visible
29 Jun ? 18:50:15 10° NNW 18:53:21 14° NNE 18:56:27 10° NE visible
29 Jun ? 20:37:54 10° NW 20:41:25 26° N 20:41:25 26° N visible
30 Jun ? 18:36:31 10° NNW 18:39:57 16° NNE 18:43:23 10° NE visible
30 Jun ? 20:24:15 10° NW 20:28:40 32° N 20:28:40 32° N visible
01 Jul ? 05:36:03 10° SSW 05:38:12 12° S 05:40:21 10° SSE visible
01 Jul ? 20:10:37 10° NW 20:15:56 38° NNE 20:15:56 38° NNE visible
02 Jul ? 05:22:18 10° SSW 05:24:50 13° S 05:27:22 10° SE visible
02 Jul ? 19:57:01 10° NW 20:02:39 43° NNE 20:03:13 42° NE visible
03 Jul ? 05:08:33 10° SSW 05:11:27 14° S 05:14:21 10° SE visible
03 Jul ? 19:43:24 10° NW 19:49:10 49° NNE 19:50:31 42° ENE visible
